Weather History for South Lake Tahoe, CA

Change the Weather History Date:

Wednesday, June 19, 2013

  Actual Average Record
Temperature  
Mean Temperature 50 °F 56 °F  
Max Temperature 63 °F 73 °F 85 °F (1988)
Min Temperature 36 °F 38 °F 27 °F (1978)
Degree Days  
Heating Degree Days 15 10  
Month to date heating degree days 114 222  
Since 1 June heating degree days 114 222  
Since 1 July heating degree days 6977 7644  
Cooling Degree Days 0 0  
Month to date cooling degree days 5 0  
Year to date cooling degree days 5 0  
Since 1 June cooling degree days 5 0  
Growing Degree Days 3 (Base 50)    
Moisture  
Dew Point 16 °F    
Average Humidity 35    
Maximum Humidity 59    
Minimum Humidity 11    
Precipitation  
Precipitation 0.00 in - 0.86 in (1982)
Month to date precipitation 0.07  
Year to date precipitation 4.82  
Sea Level Pressure  
Sea Level Pressure 29.94 in    
Wind  
Wind Speed 12 mph (SSW)    
Max Wind Speed 21 mph    
Max Gust Speed 31 mph    
Visibility 10 miles    
Events      
T = Trace of Precipitation, MM = Missing Value Source: NWS Daily Summary

Daily Weather History Graph

Daily Weather History Graph

Search for Another Location

Airport:

Trip Planner

Search our weather history database for the weather conditions in past years. The results will help you decide how hot, cold, wet, or windy it might be!

Date:

Astronomy

Jun. 19, 2013 Rise Set
Actual Time 5:34 AM PDT 8:28 PM PDT
Civil Twilight 5:02 AM PDT 9:00 PM PDT
Nautical Twilight 4:21 AM PDT 9:40 PM PDT
Astronomical Twilight 3:35 AM PDT 10:27 PM PDT
Moon 4:28 PM PDT (6/19) 2:20 AM PDT (6/19)
Length of Visible Light 15h 58m
Length of Day
14h 53m
Waxing Gibbous, 81% of the Moon is Illuminated
Jun 19
Waxing Gibbous
Jun 23
Full
Jun 29
Last Quarter
Jul 8
New
Jul 15
First Quarter

Hourly Weather History & Observations

Time (PDT) Temp. Windchill Dew Point Humidity Pressure Visibility Wind Dir Wind Speed Gust Speed Precip Events Conditions
12:53 AM 46.0 °F 40.6 °F 23.0 °F 40% 29.85 in 10.0 mi South 11.5 mph - N/A   Clear
1:53 AM 46.0 °F 39.0 °F 15.1 °F 29% 29.83 in 10.0 mi South 17.3 mph 21.9 mph N/A   Clear
2:53 AM 45.0 °F 38.9 °F 10.0 °F 24% 29.83 in 10.0 mi South 12.7 mph - N/A   Clear
3:53 AM 45.0 °F 40.1 °F 7.0 °F 21% 29.85 in 10.0 mi SSW 9.2 mph - N/A   Clear
4:53 AM 43.0 °F 37.2 °F 9.0 °F 25% 29.86 in 10.0 mi South 10.4 mph 16.1 mph N/A   Clear
5:53 AM 43.0 °F 38.2 °F 10.9 °F 27% 29.88 in 10.0 mi SSW 8.1 mph - N/A   Clear
6:53 AM 45.0 °F 40.6 °F 12.9 °F 27% 29.90 in 10.0 mi East 8.1 mph - N/A   Clear
7:53 AM 48.0 °F - 12.9 °F 24% 29.94 in 10.0 mi South 11.5 mph - N/A   Clear
8:53 AM 51.1 °F - 12.9 °F 22% 29.94 in 10.0 mi South 13.8 mph - N/A   Clear
9:53 AM 53.1 °F - 10.9 °F 19% 29.94 in 10.0 mi SSW 13.8 mph - N/A   Clear
10:53 AM 57.0 °F - 9.0 °F 15% 29.93 in 10.0 mi South 15.0 mph 24.2 mph N/A   Clear
11:53 AM 59.0 °F - 5.0 °F 12% 29.95 in 10.0 mi SSW 17.3 mph 21.9 mph N/A   Clear
12:53 PM 60.1 °F - 9.0 °F 13% 29.95 in 7.0 mi South 17.3 mph 23.0 mph N/A   Clear
1:53 PM 62.1 °F - 12.0 °F 14% 29.95 in 10.0 mi South 15.0 mph 20.7 mph N/A   Clear
2:53 PM 62.1 °F - 14.0 °F 15% 29.95 in 10.0 mi SSW 13.8 mph - N/A   Clear
3:53 PM 63.0 °F - 16.0 °F 16% 29.95 in 10.0 mi South 15.0 mph 23.0 mph N/A   Clear
4:53 PM 62.1 °F - 15.1 °F 16% 29.96 in 10.0 mi South 16.1 mph 23.0 mph N/A   Clear
5:53 PM 59.0 °F - 19.0 °F 21% 29.97 in 10.0 mi SW 9.2 mph 23.0 mph N/A   Clear
6:53 PM 55.9 °F - 19.9 °F 25% 29.99 in 10.0 mi SSW 8.1 mph - N/A   Clear
7:53 PM 54.0 °F - 21.0 °F 28% 29.99 in 10.0 mi SSW 4.6 mph - N/A   Clear
8:53 PM 48.9 °F - 27.0 °F 43% 30.01 in 10.0 mi SW 6.9 mph - N/A   Clear
9:53 PM 48.0 °F - 28.9 °F 48% 30.02 in 10.0 mi South 5.8 mph - N/A   Clear
10:53 PM 43.0 °F - 28.0 °F 56% 30.02 in 10.0 mi Calm Calm - N/A   Clear
11:53 PM 39.0 °F - 27.0 °F 62% 30.02 in 10.0 mi Calm Calm - N/A   Clear